Regional Weather Roundup
Issued by NWS

Home | Current Version | Previous Version | Graphics & Text | Print | Product List | Glossary Off
Versions: 1 2 3 4 5 6 7 8 9 10 11 12 13 14 15 16 17 18 19 20 21 22 23 24 25 26 27 28 29 30 31 32 33 34 35 36 37 38 39 40 41 42 43 44 45 46 47 48 49 50

000
ASUS43 KDTX 162110
RWRMI
MICHIGAN HOURLY REGIONAL WEATHER ROUNDUP
NATIONAL WEATHER SERVICE DETROIT/PONTIAC MI
500 PM EDT TUE SEP 16 2014

NOTE: "FAIR" INDICATES FEW OR NO CLOUDS BELOW 12,000 FEET WITH NO
SIGNIFICANT WEATHER AND/OR OBSTRUCTION TO VISIBILITY.

MIZ047>049-052>055-059>063-066>070-074>076-081>083-162200-
SOUTHEAST LOWER MICHIGAN

CITY           SKY/WX    TMP DP  RH WIND       PRES   REMARKS
ADRIAN         MOSUNNY   67  43  41 N5        30.10F
ALMA           PTSUNNY   65  42  44 W13       30.09S
ANN ARBOR      MOSUNNY   66  43  43 VRB7      30.09F
BAD AXE        PTSUNNY   61  49  64 SW6       30.07F
CARO           PTSUNNY   63  47  56 SW6       30.07F
DETROIT CITY   MOSUNNY   69  41  36 N6        30.08F
DETROIT        MOSUNNY   65  42  43 VRB5      30.09F
FLINT          PTSUNNY   65  44  46 SW9       30.09S
GROSSE ILE     CLOUDY    64  52  63 S9        30.08F
HILLSDALE      SUNNY     65  41  41 W5        30.10F
HOWELL         MOSUNNY   63  43  47 W10       30.09S

CITY           SKY/WX    TMP DP  RH WIND       PRES   REMARKS
JACKSON        MOSUNNY   65  44  46 W8        30.10F
LAMBERTVILLE   SUNNY     68  43  40 W6        30.10S
LANSING        PTSUNNY   63  45  51 W8        30.10S
LAPEER         FAIR      62  41  47 CALM      30.08F
MASON          MOSUNNY   62  44  52 W3        30.10S
MONROE         MOSUNNY   66  43  42 W8        30.08F
MT. CLEMENS    MOSUNNY   63  45  51 S8        30.07F
PONTIAC        MOSUNNY   64  41  42 W12       30.08F
PORT HOPE        N/A     63  44  50 W7        30.05F
PORT HURON     PTSUNNY   63  45  51 W3        30.08F
TRI CITIES     MOSUNNY   65  44  46 W13       30.08F
TROY           MOSUNNY   67  38  34 W7        30.10S
SAGINAW HB     MOSUNNY   64  45  48 W9        30.06F
$$
MIZ043>046-050>051-056>058-064>065-071>073-077>080-162200-
SOUTHWEST LOWER MICHIGAN

CITY           SKY/WX    TMP DP  RH WIND       PRES   REMARKS
BATTLE CREEK   PTSUNNY   64  47  53 NW7       30.11F
BENTON HARBOR  SUNNY     61  46  57 VRB7      30.13F
BIG RAPIDS     MOSUNNY   62  44  51 W8        30.08F
COLDWATER      MOSUNNY   64  45  49 NW3       30.11S
FREMONT        FAIR      62  37  40 W12       30.10S
HOLLAND        SUNNY     62  44  51 NW9       30.14S
GRAND RAPIDS   MOSUNNY   63  42  46 W16       30.12S
IONIA          FAIR      63  43  48 W9G17     30.09S
KALAMAZOO      PTSUNNY   66  48  52 NW9       30.11F
LUDINGTON      SUNNY     59  41  49 W9        30.12S
MARSHALL       MOSUNNY   65  44  46 W8        30.10S
MOUNT PLEASANT MOSUNNY   62  44  50 W7        30.07F
MUSKEGON       MOSUNNY   61  40  45 W9        30.13S
SOUTH HAVEN    SUNNY     63  47  55 W9        30.13F
$$
MIZ016>042-162200-
NORTHERN LOWER MICHIGAN

CITY           SKY/WX    TMP DP  RH WIND       PRES   REMARKS
ALPENA         MOSUNNY   63  38  39 W10       30.03S
BEAVER ISLAND  SUNNY     61  44  53 SW17G25   30.03F
BELLAIRE       SUNNY     63  38  40 W3        30.06S
CADILLAC       SUNNY     60  42  50 W8        30.08S
CHARLEVOIX     SUNNY     61  42  50 W14G24    30.08S
FRANKFORT      SUNNY     62  42  47 W9        30.08F
GAYLORD        SUNNY     60  36  40 W10       30.05F
GRAYLING       SUNNY     62  37  40 W7        30.07S
HARBOR SPRINGS SUNNY     62  41  46 W10G17    30.04S
HOUGHTON LAKE  PTSUNNY   59  40  49 W10       30.07S
MANISTEE       SUNNY     59  37  44 W7        30.10F
OSCODA         PTSUNNY   63  44  51 NW6       30.03S
PELLSTON       SUNNY     61  43  51 W10G21    30.04S
ROGERS CITY    SUNNY     63  41  45 SW7G16    30.03F
TRAVERSE CITY  MOSUNNY   63  37  38 W9        30.06F
$$
MIZ007>008-015-162200-
EASTERN UPPER MICHIGAN

CITY           SKY/WX    TMP DP  RH WIND       PRES   REMARKS
KINROSS        SUNNY     61  39  44 SW10G20   30.00S
MACKINAC ISLAN SUNNY     59  43  54 W14G26    30.02S
NEWBERRY       SUNNY     61  46  57 SW18G24   29.99S
S. S. MARIE    MOSUNNY   62  41  46 W13G23    29.97F
MUNISING         N/A     69  41  36 SW8       29.96F
$$
MIZ004>006-011>014-085-162200-
CENTRAL UPPER MICHIGAN

CITY           SKY/WX    TMP DP  RH WIND       PRES   REMARKS
MANISTIQUE     SUNNY     60  51  71 S15G25    30.00F
ESCANABA       PTSUNNY   66  43  42 W12       30.00F
MENOMINEE      MOSUNNY   66  43  42 SW8       30.02F
SAWYER-GWINN   PTSUNNY   66  41  39 W9        29.98S
$$
MIZ001>003-009>011-084-162200-
WESTERN UPPER MICHIGAN

CITY           SKY/WX    TMP DP  RH WIND       PRES   REMARKS
IRON MOUNTAIN  SUNNY     67  40  37 W13G20    30.00F
HOUGHTON       CLOUDY    59  41  51 W15       29.97R
COPPER HARBOR    N/A     58  43  57 N13G23    29.96R
IRONWOOD       CLOUDY    64  43  45 W15       29.99S
$$

ABBREVIATIONS USED IN REMARKS
   TC - TEMPERATURE IN CELSIUS
  WCI - WIND CHILL INDEX
   HX - HEAT INDEX
  VSB - VISIBILITY




USA.gov is the U.S. government's official web portal to all federal, state and local government web resources and services.